Regional Weather Roundup
Issued by NWS

Home | Current Version | Previous Version | Graphics & Text | Print | Product List | Glossary On
Versions: 1 2 3 4 5 6 7 8 9 10 11 12 13 14 15 16 17 18 19 20 21 22 23 24 25 26 27 28 29 30 31 32 33 34 35 36 37 38 39 40 41 42 43 44 45 46 47 48 49 50
000
ASUS43 KMKX 030220
RWRWI

WISCONSIN REGIONAL WEATHER ROUNDUP
NATIONAL WEATHER SERVICE MILWAUKEE/SULLIVAN WI
800 PM CST MON MAR 02 2015

NOTE: "FAIR" INDICATES FEW OR NO CLOUDS BELOW 12,000 FEET WITH NO
SIGNIFICANT WEATHER AND/OR OBSTRUCTIONS TO VISIBILITY.

WIZ001-002-006>008-014>016-023>028-030300-
NORTHWEST WISCONSIN

CITY           SKY/WX    TMP DP  RH WIND       PRES   REMARKS
SUPERIOR ARPT  MOCLDY    20   6  53 SW7       30.16S WCI  12
ASHLAND        CLEAR     18   1  47 S5        30.17F WCI  11
HAYWARD        PTCLDY    18   3  52 CALM      30.15F
SIREN          CLOUDY    22   6  50 S8        30.16F WCI  12
CUMBERLAND     CLOUDY    21   9  58 S9        30.15F WCI  11
RICE LAKE      CLOUDY    22   7  53 S8        30.17F WCI  12
CHETEK         CLOUDY    22   8  54 SE7       30.18F WCI  13
LADYSMITH      PTCLDY    21   5  50 S6        30.18F WCI  14
EAU CLAIRE     CLOUDY    24   8  50 S8        30.19F WCI  15
MENOMONIE      CLOUDY    24   8  50 S7        30.20F WCI  16
NEW RICHMOND   CLOUDY    21   8  56 S10       30.17F WCI  10
OSCEOLA        CLOUDY    23  11  60 SE9       30.19F WCI  13
$$

WIZ003>005-009-010-017-018-030300-
NORTH CENTRAL WISCONSIN

CITY           SKY/WX    TMP DP  RH WIND       PRES   REMARKS
MANITOWISH WTR PTCLDY    16  -2  46 S6        30.13F WCI   7
ARBOR VITAE    PTCLDY    19   3  49 S5        30.15F WCI  12
WOODRUFF       PTCLDY    19   3  49 S5        30.15F WCI  12
RHINELANDER    PTCLDY    17   2  51 S5        30.17F WCI  10
EAGLE RIVER    CLEAR     17   1  49 CALM      30.15F
LAND O LAKES   CLEAR     18   2  50 S5        30.14F WCI  11
PHILLIPS       CLOUDY    16   4  59 S6        30.14F WCI   7
TOMAHAWK       FAIR      16   3  56 CALM      30.18F
MEDFORD        MOCLDY    18   4  53 SE6       30.17F WCI  10
MERRILL        MOCLDY    16   5  61 CALM      30.19F
$$

WIZ029-030-035-036-043>047-030300-
CENTRAL WISCONSIN

CITY           SKY/WX    TMP DP  RH WIND       PRES   REMARKS
WAUSAU         MOCLDY    20   3  48 SE5       30.19F WCI  13
MOSINEE        NOT AVBL
MARSHFIELD     CLOUDY    22   8  55 S3        30.20F
STEVENS POINT  CLOUDY    22   7  52 S3        30.24F
WAUPACA        CLOUDY    27  11  52 SE7       30.27F WCI  19
WAUTOMA        CLOUDY    25  10  52 S7        30.27F WCI  17
WISC RAPIDS    CLOUDY    24   5  44 S6        30.25F WCI  17
CAMP DOUGLAS   CLOUDY    27  12  54 SE5       30.24F WCI  21
$$

WIZ011>013-019>022-031-037>040-048>050-030300-
NORTHEAST WISCONSIN

CITY           SKY/WX    TMP DP  RH WIND       PRES   REMARKS
ANTIGO         PTCLDY    13   2  63 S5        30.20F WCI   5
SHAWANO        FAIR      24  10  55 CALM      30.27F
OCONTO         PTCLDY    20  11  68 CALM      30.29F
STURGEON BAY   PTCLDY    19  10  68 S7        30.30F WCI  10
GREEN BAY      PTCLDY    24  13  62 S5        30.29F WCI  18
MANITOWOC      MOCLDY    24  17  74 S8        30.31F WCI  15
APPLETON       MOCLDY    21  10  63 VRB3      30.28F
CLINTONVILLE   MOCLDY    23  14  68 S7        30.26F WCI  15
OSHKOSH        CLOUDY    24  13  62 S7        30.28F WCI  16
$$

WIZ032>034-041-042-053>061-030300-
SOUTHWEST WISCONSIN

CITY           SKY/WX    TMP DP  RH WIND       PRES   REMARKS
LA CROSSE      CLOUDY    27  13  55 S9        30.26F WCI  18
SPARTA         CLOUDY    25  11  54 SE3       30.25F
VIROQUA        CLOUDY    24  14  66 S7        30.23F WCI  15
BOSCOBEL       CLOUDY    25  13  60 SE5       30.29F WCI  19
PRAIRIE DU CHI CLOUDY    26  13  58 SE6       30.27F WCI  19
PLATTEVILLE    CLOUDY    25  18  76 SE7       30.27F WCI  17
$$

WIZ056-057-062-063-064-067-068-030300-
SOUTH CENTRAL WISCONSIN

CITY           SKY/WX    TMP DP  RH WIND       PRES   REMARKS
REEDSBURG      CLOUDY    24  12  60 S6        30.27S WCI  17
BARABOO/DELLS  CLOUDY    24  11  58 S9        30.27S WCI  15
LONE ROCK      CLOUDY    25  13  60 S6        30.29F WCI  18
MINERAL POINT  CLOUDY    27  18  69 SE9       30.26F WCI  17
MADISON        CLOUDY    24  11  57 S10       30.29F WCI  14
MIDDLETON      CLOUDY    26  13  58 S6        30.29F WCI  19
WATERTOWN      CLOUDY    24  13  63 S7        30.29F WCI  16
MONROE         CLOUDY    25  19  80 S8        30.28F WCI  16
JANESVILLE     CLOUDY    27  18  69 S6        30.30F WCI  20
$$

WIZ051-052-058>065-066-070>072-030300-
SOUTHEAST WISCONSIN

CITY           SKY/WX    TMP DP  RH WIND       PRES   REMARKS
MILWAUKEE      CLOUDY    25  14  63 S7        30.33F WCI  17
WAUKESHA       CLOUDY    21  12  68 S7        30.31F WCI  13
MILWAUKEE/TIMM CLEAR     25  12  58 S8        30.33F WCI  16
RACINE         CLOUDY    26  17  68 S8        30.34F WCI  18
BURLINGTON     CLOUDY    23  15  71 S5        30.31F WCI  17
KENOSHA        CLOUDY    26  18  71 S7        30.32F WCI  18
FOND DU LAC    CLOUDY    25  11  55 S6        30.29F WCI  18
SHEBOYGAN      CLOUDY    25  16  68 S9        30.30F WCI  15
WEST BEND      CLOUDY    27  14  59 S6        30.29F WCI  20
JUNEAU         CLOUDY    24  11  58 S7        30.30S WCI  16
$$

LSZ147-162-030300-
LAKE SUPERIOR

STATION/POSITION TIME  TEMP    WIND        PRES    WAVE
                       AIR SEA DIR/SP/G            HT/PER
                 (UTC) (F)     (DEG/KT/KT) (MB)    (FT/S)
DEVILS ISLAND    0200   24     210/ 10/ 12 1022.0F
PORT WING        0200   22     180/  5/ 16 1021.0F
SAXON HARBOR     0100   23      CALM  /  4 1022.0F
$$

LMZ867-665-643>646-030300-
LAKE MICHIGAN

STATION/POSITION TIME  TEMP    WIND        PRES    WAVE
                       AIR SEA DIR/SP/G            HT/PER
                 (UTC) (F)     (DEG/KT/KT) (MB)    (FT/S)
NORTHPORT PIER   0201   21     180/  1/  7 1025.4F
SISTER BAY       0143   20     190/  8/  9   N/A
KEWAUNEE LAKESHO 0100          210/  8/ 10 1026.1
SHEBOYGAN LAKESH 0200   27     180/ 16/ 17 1027.3F
PORT WASHINGTON  0100   27     170/ 13/ 15 1027.8F
MILWAUKEE LAKESH 0200   26     200/  9/ 10   N/A
KENOSHA   LAKESH 0200   27     170/ 13/ 15 1026.8F
$$

TC  - TEMPERATURE IN CELSIUS
VSB - VISIBILITY IN STATUTE MILES
WCI - WIND CHILL INDEX
HX  - HEAT INDEX




USA.gov is the U.S. government's official web portal to all federal, state and local government web resources and services.